TimeEDT,TemperatureF,Dew PointF,Humidity,Sea Level PressureIn,VisibilityMPH,Wind Direction,Wind SpeedMPH,Gust SpeedMPH,PrecipitationIn,Events,Conditions,WindDirDegrees,DateUTC
12:53 AM,66.0,59.0,78,29.95,10.0,SE,10.4,-,N/A,,Overcast,140,2013-04-18 04:53:00
1:53 AM,64.9,57.9,78,29.92,10.0,SSE,10.4,-,N/A,,Clear,150,2013-04-18 05:53:00
2:53 AM,64.0,57.9,80,29.89,10.0,South,11.5,-,N/A,,Clear,170,2013-04-18 06:53:00
3:53 AM,63.0,57.0,81,29.87,10.0,South,11.5,-,N/A,,Clear,170,2013-04-18 07:53:00
4:53 AM,63.0,57.0,81,29.86,10.0,South,11.5,-,N/A,,Clear,170,2013-04-18 08:53:00
5:53 AM,63.0,57.0,81,29.86,10.0,South,11.5,-,N/A,,Clear,180,2013-04-18 09:53:00
6:53 AM,64.0,57.9,80,29.86,10.0,South,10.4,-,N/A,,Clear,190,2013-04-18 10:53:00
7:53 AM,64.9,57.9,78,29.88,10.0,South,11.5,-,N/A,,Clear,190,2013-04-18 11:53:00
8:53 AM,66.0,57.9,75,29.88,10.0,South,13.8,21.9,N/A,,Clear,180,2013-04-18 12:53:00
9:53 AM,70.0,61.0,73,29.85,10.0,SSW,21.9,31.1,N/A,,Clear,200,2013-04-18 13:53:00
10:53 AM,73.0,62.1,68,29.84,10.0,SSW,18.4,32.2,N/A,,Partly Cloudy,200,2013-04-18 14:53:00
11:53 AM,75.9,61.0,60,29.81,10.0,SSW,18.4,29.9,N/A,,Partly Cloudy,200,2013-04-18 15:53:00
12:53 PM,77.0,60.1,56,29.80,10.0,SSW,19.6,36.8,N/A,,Scattered Clouds,210,2013-04-18 16:53:00
1:53 PM,79.0,59.0,50,29.77,10.0,South,20.7,33.4,N/A,,Clear,190,2013-04-18 17:53:00
2:53 PM,80.1,57.9,47,29.76,10.0,South,25.3,41.4,N/A,,Clear,190,2013-04-18 18:53:00
3:53 PM,81.0,57.0,44,29.74,10.0,South,28.8,41.4,N/A,,Clear,190,2013-04-18 19:53:00
4:53 PM,79.0,55.0,44,29.72,10.0,South,25.3,40.3,N/A,,Clear,190,2013-04-18 20:53:00
5:53 PM,77.0,55.0,47,29.71,10.0,South,16.1,27.6,N/A,,Clear,190,2013-04-18 21:53:00
6:53 PM,77.0,53.1,43,29.69,10.0,South,24.2,31.1,N/A,,Clear,180,2013-04-18 22:53:00
7:53 PM,77.0,50.0,39,29.67,10.0,South,20.7,32.2,N/A,,Mostly Cloudy,190,2013-04-18 23:53:00
8:53 PM,75.9,50.0,40,29.66,10.0,South,19.6,27.6,N/A,,Mostly Cloudy,190,2013-04-19 00:53:00
9:53 PM,75.9,51.1,42,29.66,10.0,SSW,20.7,28.8,N/A,,Overcast,200,2013-04-19 01:53:00
10:53 PM,73.9,51.1,45,29.63,10.0,South,19.6,26.5,N/A,,Overcast,180,2013-04-19 02:53:00
11:53 PM,73.0,52.0,48,29.60,10.0,South,16.1,24.2,N/A,,Mostly Cloudy,180,2013-04-19 03:53:00